Content
SEND FEEDBACK

Daily
Averages
Monthly
Summary
Philippines

PUNTA ENGANA, PHILIPPINES


Home > Asia > Philippines
Elevation: 24 meters     Latitude: 10 18N     Longitude: 123 58E

WEATHER
 
SELECT A DAY
Number of Records: 155,293;   Date Range: 2/21/97 - 8/30/14
 
SHARE

PRINT THIS DATA

[ ← Previous Day ]
WEATHER ALMANAC - 31 JANUARY, 2013
[ Next Day → ]
[ °F ]   °C
Weather ElementAverageHighLow
Temperature26.7 °C30 °C (1:00 pm)23.9 °C (5:00 am)
Dewpoint23.4 °C26.1 °C (11:00 am)22 °C (1:00 am)
Humidity82.1 %94 % (7:00 am)66 % (2:00 pm)
Barometer1014.2 hPa1016.3 hPa (8:00 am)1012.2 hPa (3:00 pm)
Wind Speed12.1 km/h29.6 km/h (11:00 am)
Weather ElementAverage
Visibility12.2 km
Wind DirectionESE (105 °)

Weather ElementTotal
Precipitation---
Cooling Degree Days8.6 (Base 18.3)
Growing Degree Days16.9 (Base 10)
Averaged from 30 records on 31 January, 2013
WEATHER CONDITIONS BREAKOUT
WIND DIRECTION BREAKOUT
WEATHER BY HOUR - 31 JANUARY, 2013
[ °F ]   °C
Local TimeTemperatureDewpointHumidityBarometerVisibilityWind DirectionWind SpeedGust SpeedPrecipitationEventsConditions
1:00 AM24 °C22 °C89 %1014.2 hPa10 kmNNE (20°)14.8 km/hMostly Cloudy
2:00 AM24.4 °C23.3 °C91 %1014.9 hPa14.5 kmNNE (20°)7.2 km/hRainLight Rain
2:00 AM24 °C22 °C89 %1013.2 hPa10 kmNNE (30°)11.1 km/hMostly Cloudy
3:00 AM25 °C23 °C89 %1013.2 hPa10 kmNNE (20°)11.1 km/hMostly Cloudy
4:00 AM24 °C22 °C89 %1013.2 hPa8 kmNNE (20°)11.1 km/hRainLight Rain
5:00 AM23.9 °C22.8 °C92 %1014.9 hPa17.7 kmNNW (340°)7.2 km/hRainLight Rain
5:00 AM24 °C22 °C89 %1014.2 hPa6.9 kmNNE (20°)11.1 km/hRainLight Rain
6:00 AM24 °C22 °C89 %1014.2 hPa6.9 kmNNW (340°)14.8 km/hRainLight Rain
7:00 AM24 °C23 °C94 %1015.2 hPa10 kmNorth (360°)7.4 km/hMostly Cloudy
8:00 AM25.6 °C23.3 °C86 %1016.3 hPa25.7 kmESE (120°)7.2 km/hPartly Cloudy
8:00 AM25 °C24 °C94 %1015.2 hPa10 kmNorth (10°)11.1 km/hScattered Clouds
9:00 AM27 °C24 °C84 %1015.2 hPa10 kmNNE (30°)11.1 km/hScattered Clouds
10:00 AM28 °C24 °C79 %1015.2 hPa10 kmNorth (10°)22.2 km/hScattered Clouds
11:00 AM29.4 °C26.1 °C79 %1015.2 hPa30.6 kmNNW (340°)7.2 km/hScattered Clouds
11:00 AM29 °C24 °C74 %1015.2 hPa10 kmNE (40°)29.6 km/hScattered Clouds
12:00 PM29 °C24 °C74 %1014.2 hPa10 kmNE (40°)25.9 km/hScattered Clouds
1:00 PM30 °C24 °C70 %1013.2 hPa10 kmNNE (20°)22.2 km/hPartly Cloudy
2:00 PM30 °C23 °C66 %1013.2 hPa10 kmNNE (20°)18.5 km/hPartly Cloudy
3:00 PM30 °C23 °C66 %1012.2 hPa10 kmNNE (30°)13 km/hScattered Clouds
4:00 PM29 °C23 °C70 %1012.2 hPa10 kmNNE (30°)16.7 km/hScattered Clouds
5:00 PM27.8 °C25.6 °C83 %1012.5 hPa25.7 kmNorth3.5 km/hPartly Cloudy
5:00 PM29 °C23 °C70 %1012.2 hPa10 kmNNE (20°)16.7 km/hMostly Cloudy
6:00 PM28 °C23 °C74 %1013.2 hPa10 kmNorth (350°)11.1 km/hScattered Clouds
7:00 PM28 °C23 °C74 %1013.2 hPa10 kmNNE (30°)14.8 km/hScattered Clouds
8:00 PM26.7 °C24.4 °C84 %1014.2 hPa17.7 kmCalmPartly Cloudy
8:00 PM27 °C23 °C79 %1014.2 hPa10 kmNNE (30°)14.8 km/hScattered Clouds
9:00 PM26 °C24 °C89 %1015.2 hPa8 kmVariable3.7 km/hPartly Cloudy
10:00 PM26 °C23 °C83 %1015.2 hPa10 kmNW (320°)9.3 km/hPartly Cloudy
11:00 PM26.1 °C24.4 °C86 %1014.9 hPa17.7 kmCalmScattered Clouds
11:00 PM26 °C24 °C89 %1015.2 hPa10 kmNNW (330°)7.4 km/hScattered Clouds
Hourly data recorded from RPVM, located 0 kilometers away from Punta Engana, Philippines







STORIES FROM OUR PARTNERS